[Date Prev][Date Next][Thread Prev][Thread Next] - [Date Index][Thread Index][Author Index]

2 Line ISS Keps 2-24



ISS
1 25544U 98067A   05055.44634259  .00014884  00000-0  12464-3 0  8839
2 25544  51.6466 117.5337 0004318 130.1046  61.2932 15.70221619357954
----
Via the sarex mailing list at AMSAT.ORG courtesy of AMSAT-NA.
To unsubscribe, send "unsubscribe sarex" to Majordomo@amsat.org



AMSAT Top AMSAT Home